Location: Newark
(52.4787°S, 179.0532°W)
Time: 03:07:49
(UTC+00:00)

S-56A Canister/Altair - Visible Passes

Search period start: 19 November 2019 00:00
Search period end: 29 November 2019 00:00
Orbit: 634 x 2498 km, 38.9° (Epoch: 17 November)

Date Brightness Start Highest point End Pass type
(mag) Time Alt. Az. Time Alt. Az. Time Alt. Az.
22 Nov 10.3 14:46:14 10° NNE 14:49:33 13° NE 14:53:24 10° ENE visible
23 Nov 10.4 14:16:39 10° NE 14:17:03 10° NE 14:17:28 10° NE visible
26 Nov 9.8 14:36:50 10° N 14:41:11 19° NNE 14:46:41 10° ENE visible
27 Nov 9.8 14:05:10 10° N 14:08:41 15° NE 14:12:53 10° ENE visible
28 Nov 9.8 13:33:52 10° NNE 13:36:12 12° NE 13:38:50 10° ENE visible
